sat.trackr.live / text

‹ back to catalog

STARLINK-32258

NORAD 60939 · 2024-155R

PAYLOAD ACTIVE UNKNOWN

§ Identity

Operator
Country
US
Launch date
2024-08-31
Launch site
AFWTR
Launch vehicle
Mass (kg)
RCS (m²)

Purposes: comms

External: N2YO · Heavens-Above · Gunter

§ Orbital elements

Epoch: 2026-05-25T03:03:50.489280Z

Period
94.11 min
Inclination
53.1587°
Eccentricity
0.0001055
Mean motion
15.30196038 rev/d
Perigee alt
474.5 km
Apogee alt
475.9 km
Semi-major
6,853.4 km
B*
2.1055e-5
RAAN
134.6359°
Arg perigee
85.6661°
Mean anomaly
274.4460°
Rev number
9,799

§ Raw data

STARLINK-322581 60939U 24155R   26145.12766770  .00000265  00000+0  21055-4 0  99972 60939  53.1587 134.6359 0001055  85.6661 274.4460 15.30196038 97999

JSON: /api/v1/satellites/60939 · /tle

For live sub-satellite position, see the globe view (requires WebGL).

§ Visibility from observer

Set your observer location to see the next 7 days of passes ≥ 10°. The values pass through the URL so the page stays shareable.

No JS? Fill the form by hand. The geolocation button needs JavaScript.